Capitol, MT (59319)

9:18 PM MST on February 06, 2016 (GMT -0700)
Box Elder Valley | | Change Station
CLOSE
Current Station
Personal Weather Station
Location: Ekalaka, MT
Elevation: 3136 ft
Nearby Weather Stations
Active Advisory: High Wind Warning Active Notice: Public Information Statement

Elev 3136 ft 45.74 °N, 104.33 °W | Updated 18 minutes ago

Partly Cloudy
Partly Cloudy
36.7 °F
Feels Like 30 °F
N
9.0
Wind Variable Wind from WNW
Gusts 21.0 mph

Today
High -- | Low -- °F
--% Chance of Precip.
Yesterday
High -- | Low -- °F
Precip. -- in
Pressure 30.06 in
Visibility 10.0 miles
Clouds Clear
Windchill 30 °F
Dew Point 24 °F
Humidity 59%
Rainfall 0.00 in
Snow Depth Not available.
7:11 AM 5:10 PM
Waning Crescent, 3% visible
METAR KW43 070355Z AUTO 28006KT 10SM CLR 01/M08 A3006 RMK AO2
Pressure 30.06 in
Visibility 10.0 miles
Clouds Clear
Windchill 30 °F
Dew Point 24 °F
Humidity 59%
Rainfall 0.00 in
Snow Depth Not available.
7:11 AM 5:10 PM
Waning Crescent, 3% visible
METAR KW43 070355Z AUTO 28006KT 10SM CLR 01/M08 A3006 RMK AO2

10-Day Weather Forecast

Almanac

Astronomy

Feb. 06, 2016 Rise Set
Actual Time
Civil Twilight
Nautical Twilight
Astronomical Twilight
Moon
Length of Visible Light
Length of Day
Tomorrow will be .
, % of the Moon is Illuminated

Today's Extremes

State Highs State Lows

Community

WunderPhotos

Upload Photos

1,891,155 photos uploaded!

WunderBlog® & News

Nearby

Air Quality

  Air Quality AQ Index Pollutant
Not available.

Snow Depth

Station Depth Elevation

Earthquake Activity

City Distance Mag. Time & Date
Minimum magnitude displayed is 2.5.

Coastal Water Temperatures

Place Temperature

Stations

Nearby Weather Stations

Station Location Temp. Windchill Dew Point Humidity Wind Precip. Elev Updated Type
                   

Watches & Warnings

High Wind Warning
Issued: 8:05 PM MST Feb. 6, 2016 – National Weather Service

... High Wind Warning remains in effect until 8 PM MST Sunday...

* impacts... dangerous cross winds could make travel hazardous for
high profile and Load carrying vehicles... including portions of
I-94... Highway 212 and Highway 2. Any loose objects may cause
property damage.

* Timing... west to northwest winds will weaken this evening before
increasing again around sunrise. Strong winds are expected
tomorrow morning into the afternoon.

* Winds... peak gusts around 60 mph are expected.

Precautionary/preparedness actions...

Winds of these magnitudes can cause property damage without extra
precautions. Motorists in high profile vehicles should use
caution until the winds subside.



Http://weather.Gov/Billings